Location: San Martino di Castrozza
(46.2667°N, 11.8000°E)
Time: 16:13:16
(UTC+00:00)

Cosmos 1802 Rocket - Pass Details

Date: 23 April 2021
Orbit: 953 x 1012 km, 82.9° (Epoch: 12 May)

Event Time Altitude Azimuth Distance (km) Brightness Sun altitude
Rises 03:02:47 0° 352° (N) 3,697 7.4 -11.6°
Reaches altitude 10° 03:05:20 10° 354° (N) 2,736 6.7 -11.2°
Maximum altitude 03:11:36 76° 80° (E) 999 4.2 -10.3°
Drops below altitude 10° 03:17:45 10° 167° (SSE) 2,684 6.2 -9.4°
Sets 03:20:14 0° 169° (SSE) 3,621 6.8 -9.0°
